Location: Kielce
(50.8833°N, 20.6167°E)
Time: 20:02:20
(UTC+02:00)

X-37B - Pass Details

Date: 15 March 2021
Orbit: 380 x 394 km, 45.0° (Epoch: 07 April)

Event Time Altitude Azimuth Distance (km) Brightness Sun altitude
Rises 19:36:50 0° 248° (WSW) 2,270 5.2 -18.5°
Reaches altitude 10° 19:39:04 10° 236° (WSW) 1,419 3.9 -18.8°
Enters shadow 19:41:11 25° 199° (SSW) 824 2.2 -19.1°
